GFSFLT1_850_rhum_234.txt.gz
RH
34 31 29 32 31 31 31 31 31 33 33 43 50 71 65 84 71 60 60 58 59 61 60 57 56 60 61 50 33 23 28 31
32 32 32 33 33 32 32 32 33 34 43 60 71 84 99 87 99 82 66 67 65 65 67 68 70 62 56 60 48 31 31 41
35 34 34 33 34 33 33 35 34 34 43 37 62 59 57 62 62 82 96 96 71 70 72 76 73 76 64 62 63 44 31 35
39 38 36 35 34 35 36 36 38 36 36 52 87 97 92 99 99 100 100 94 77 73 73 82 82 81 74 68 67 62 37 34
42 41 40 41 40 37 36 36 37 38 44 56 98 99 99 100 100 96 100 98 98 100 100 92 82 88 83 75 71 70 56 34
43 43 43 43 43 42 39 36 35 38 54 50 81 100 100 98 91 83 78 97 100 100 98 98 99 98 91 88 78 75 72 58
61 50 46 46 45 40 36 32 31 55 69 61 70 85 99 99 99 100 100 99 100 100 100 99 98 99 99 94 88 79 77 78
78 70 73 68 52 45 36 33 38 60 67 80 94 100 100 100 100 99 98 99 100 99 98 100 99 99 100 100 98 89 84 82
82 91 96 96 85 61 41 54 65 67 90 74 97 100 99 100 100 100 100 100 99 96 98 100 100 94 99 100 100 99 99 93
64 67 83 99 100 100 99 99 98 97 98 98 98 99 100 99 94 81 86 90 97 89 99 99 100 100 100 98 100 99 100 100
77 76 77 72 81 98 100 100 100 100 100 100 100 100 100 91 79 72 68 69 68 76 97 99 99 100 100 99 99 99 99 100
99 89 81 73 64 60 60 81 100 100 100 99 100 100 100 100 96 83 70 74 79 83 68 67 80 94 100 99 100 100 100 100
100 100 91 74 68 53 49 51 62 72 95 100 100 100 100 100 100 98 75 84 87 99 96 90 98 98 89 100 99 100 99 100
100 98 99 99 88 79 68 53 49 47 63 64 72 92 99 99 100 100 100 100 100 100 100 100 100 100 100 100 86 99 98 95
100 100 99 100 98 97 85 77 74 56 43 45 49 56 62 67 84 87 84 86 90 97 100 99 100 99 98 100 99 96 98 80
98 97 95 94 91 90 88 78 73 67 74 58 42 46 50 56 58 47 60 62 62 57 50 73 74 78 95 99 98 94 100 96
82 88 95 97 94 91 87 89 85 70 49 57 67 68 41 44 49 53 46 36 42 55 56 35 41 43 54 73 94 100 100 100
66 72 81 87 92 94 89 81 87 86 77 76 61 52 57 59 42 35 36 40 37 28 24 29 39 39 38 50 63 79 98 100
61 57 47 47 62 78 86 84 84 77 82 79 75 69 63 55 53 49 44 36 37 39 32 29 25 22 29 35 34 44 64 80

GFSFLT1_850_rhum_240.txt.gz
RH
28 30 28 31 33 36 36 49 91 94 47 52 51 73 92 72 94 91 96 80 80 35 69 65 30 26 27 25 21 31 77 81
32 33 32 32 34 35 34 38 76 98 99 87 70 70 74 76 71 94 94 91 83 71 80 83 39 27 26 26 22 24 51 82
33 35 36 36 34 40 38 36 60 92 100 94 56 44 45 42 34 81 96 97 88 90 78 61 43 36 35 31 36 31 66 75
26 28 34 36 36 38 41 40 48 80 94 99 99 94 90 81 83 98 98 98 92 91 93 60 44 44 45 41 50 52 58 65
18 25 28 31 35 38 42 42 45 74 94 85 97 99 98 85 60 52 80 97 99 96 95 71 59 49 53 49 63 55 52 42
54 36 32 30 33 36 44 45 45 60 88 76 83 90 92 86 88 94 99 99 99 99 100 98 78 60 64 67 79 58 57 73
67 67 67 64 64 58 47 51 47 51 77 66 82 87 91 91 92 98 98 99 100 100 99 99 96 82 71 68 77 69 61 68
83 84 86 92 94 94 82 57 51 50 60 57 55 68 73 78 81 89 98 100 100 99 100 99 99 98 92 77 73 71 66 66
100 99 99 100 100 95 90 82 61 52 57 62 64 71 76 82 83 88 98 100 100 98 100 99 98 100 100 99 94 82 76 77
100 100 99 100 100 100 100 100 93 70 67 66 67 74 83 87 88 89 97 100 99 100 100 99 100 100 100 98 98 99 95 86
100 100 99 100 100 100 100 100 99 100 93 96 97 94 95 89 86 94 96 95 99 99 100 100 99 97 86 96 99 99 100 99
99 99 100 100 100 100 100 100 100 100 100 100 100 100 100 100 99 98 94 98 100 100 97 100 100 100 99 100 99 98 99 100
99 100 100 100 100 100 100 100 96 98 100 100 100 100 100 100 100 100 100 100 100 95 96 100 100 100 99 98 100 99 98 100
100 99 100 100 96 100 100 99 100 98 91 88 92 97 99 99 100 100 100 100 99 100 100 100 100 100 100 100 100 99 100 100
99 97 98 100 98 95 99 99 98 92 98 99 95 90 88 86 90 96 100 100 100 100 100 100 100 100 100 100 100 100 100 100
90 98 99 98 97 99 94 94 95 90 75 87 89 96 99 89 81 73 78 91 98 100 100 100 100 100 100 100 100 100 100 99
79 83 94 97 96 96 98 95 94 87 72 59 79 84 73 78 79 82 78 72 70 83 94 100 98 99 91 89 81 100 100 100
75 80 84 100 98 98 99 97 98 73 86 50 57 45 56 76 59 56 59 69 83 67 72 85 88 94 90 98 100 100 89 100
79 84 88 93 100 100 99 98 90 97 82 99 85 60 54 43 43 54 45 62 56 76 90 78 64 68 76 83 84 94 98 97

GFSFLT1_850_rhum_243.txt.gz
RH
23 24 24 26 27 27 28 30 52 76 85 95 77 90 91 88 90 93 79 84 90 86 92 90 83 41 48 72 78 81 77 76
14 20 27 26 25 27 30 33 37 62 91 90 99 89 94 90 91 93 92 74 82 86 90 91 92 51 33 45 77 81 79 78
13 12 14 23 28 28 30 33 35 58 79 87 97 82 84 88 89 95 91 84 71 83 86 90 84 80 54 56 62 63 77 76
14 13 12 22 30 31 31 33 34 36 75 84 88 98 100 100 100 98 93 95 81 71 80 89 87 88 61 46 44 44 38 48
34 32 18 13 25 30 33 35 37 36 65 83 84 88 96 100 99 88 89 95 98 80 84 88 88 91 80 56 52 39 40 46
70 75 71 65 20 22 27 35 37 38 39 71 85 82 93 98 97 88 93 96 80 92 91 90 89 94 80 58 46 36 32 41
88 94 90 89 80 79 58 37 33 39 41 66 74 80 91 90 97 99 92 98 99 92 93 93 94 90 87 71 47 40 41 48
100 99 100 99 98 98 91 73 46 38 43 66 74 82 86 83 86 96 90 95 97 96 96 94 98 99 95 86 65 51 54 60
100 99 100 98 99 100 100 86 66 67 53 49 74 72 76 85 84 84 92 89 83 85 98 95 98 100 100 97 86 60 60 72
100 100 98 99 100 100 100 100 100 82 64 64 68 74 75 74 69 75 79 84 88 71 76 94 99 100 100 100 96 74 68 72
99 100 98 100 100 100 100 100 99 100 98 78 68 76 90 87 79 82 81 78 78 90 90 95 99 100 100 100 96 85 78 70
99 99 98 100 99 100 100 100 100 99 100 100 100 97 92 94 99 99 99 91 88 91 98 96 100 100 100 100 100 94 95 95
94 97 100 94 99 100 99 99 99 99 100 100 100 100 100 100 100 100 100 100 99 98 98 99 98 99 100 99 99 100 98 100
96 93 95 98 99 99 99 100 97 97 98 99 100 99 99 100 100 100 100 100 100 100 100 99 99 100 100 100 100 99 98 99
86 95 97 96 96 97 100 92 99 84 79 81 95 100 99 100 98 99 100 100 100 100 100 100 100 100 100 100 100 97 99 99
68 83 99 99 100 100 96 97 97 88 59 57 70 80 88 91 98 97 94 97 98 100 100 100 100 100 99 100 100 100 100 99
69 71 85 99 100 100 98 98 99 96 88 71 65 47 56 77 78 97 91 97 100 95 100 100 100 100 99 100 100 100 100 100
66 72 75 87 100 99 98 99 99 100 99 97 80 84 60 52 56 53 59 77 91 99 98 89 91 95 97 100 100 100 99 100
63 66 71 78 90 98 100 96 99 98 98 98 94 96 90 84 65 50 51 59 50 78 76 94 90 83 84 89 94 100 99 100

GFSFLT1_850_rhum_246.txt.gz
RH
12 11 11 17 21 24 26 25 28 67 61 76 64 80 100 94 94 86 82 93 84 91 88 81 76 56 58 62 87 83 75 82
13 13 13 13 13 20 26 30 25 62 78 75 89 83 95 94 95 86 80 84 90 92 95 88 84 62 48 54 86 85 78 76
68 56 41 25 15 15 21 38 30 30 47 59 80 77 88 92 89 94 82 84 95 90 96 94 80 64 68 69 85 88 76 80
82 83 77 71 70 56 38 27 23 34 38 76 73 84 79 86 89 90 99 91 86 98 95 89 79 72 56 58 72 72 70 79
96 90 67 84 86 76 50 32 40 40 33 55 60 82 80 86 91 86 94 97 84 92 92 93 77 69 68 54 63 70 63 76
100 100 98 98 86 86 64 68 46 58 54 52 56 59 74 71 76 89 93 97 90 80 87 91 89 81 62 60 64 68 72 58
100 100 100 99 100 86 76 66 78 70 56 58 70 48 69 78 71 76 78 96 100 95 91 90 87 80 83 70 63 55 58 62
100 99 99 97 96 100 99 95 92 72 58 60 86 66 66 73 70 78 75 76 98 100 98 94 88 87 91 86 82 72 60 50
100 100 99 99 97 97 99 100 99 100 86 55 62 94 60 66 68 80 68 49 80 97 95 93 98 88 93 92 93 85 72 53
99 98 99 100 99 97 99 100 97 100 100 100 91 100 94 73 62 76 73 57 62 96 98 94 100 100 100 100 100 100 93 70
92 98 98 99 100 97 100 100 99 100 100 100 98 97 97 100 95 93 92 96 99 96 98 100 100 100 92 87 91 100 100 94
93 90 91 98 98 98 98 98 98 100 98 100 100 99 86 100 98 100 98 99 95 99 98 95 98 98 82 95 98 97 99 100
96 98 98 99 92 95 96 98 99 100 99 100 98 100 100 98 100 100 94 100 82 94 98 90 93 100 100 100 99 99 98 99
85 92 92 93 99 96 96 99 93 83 94 91 92 91 96 99 99 100 100 100 100 98 94 90 100 100 100 100 98 99 100 98
70 83 97 92 95 95 97 99 99 88 68 73 89 78 79 87 93 96 99 100 100 100 100 100 98 99 100 100 100 100 100 100
63 69 87 98 92 93 95 95 98 98 90 69 78 77 71 59 74 84 90 93 96 98 99 100 99 100 95 97 100 100 97 99
57 62 70 86 92 95 96 98 99 99 88 94 96 93 62 61 52 64 73 85 87 92 94 98 98 97 98 99 100 100 100 100
52 56 64 72 86 91 99 94 93 97 84 97 98 99 94 78 75 64 48 77 90 85 93 98 98 100 95 98 100 100 99 100
50 51 57 64 73 80 96 94 92 82 85 93 98 87 97 99 99 91 65 69 62 87 92 95 95 100 92 85 97 100 100 100

GFSFLT1_850_rhum_252.txt.gz
RH
92 91 65 53 45 43 39 35 38 39 26 35 65 92 77 60 64 72 65 69 61 74 72 54 37 38 40 28 30 36 25 27
85 88 96 91 58 43 42 42 40 43 41 28 44 85 96 85 69 66 70 66 71 79 82 69 45 41 36 35 25 38 39 45
73 66 70 82 99 88 62 48 50 66 68 44 43 52 85 100 89 85 77 68 79 93 95 85 58 47 46 42 26 47 52 67
77 78 73 74 97 100 98 94 68 57 73 66 37 33 43 72 95 92 86 70 93 94 100 99 72 51 52 49 33 35 56 78
71 75 75 85 94 95 97 98 98 84 77 73 66 33 36 42 61 100 91 95 100 75 100 99 82 64 58 55 43 28 40 74
79 65 72 79 83 97 92 99 99 98 93 99 96 46 34 35 55 50 90 93 100 96 94 98 95 81 62 63 58 36 46 48
72 57 65 74 84 92 96 99 100 100 100 100 99 75 50 57 58 59 89 86 99 99 100 100 98 92 76 71 69 50 44 51
74 77 66 68 79 95 96 96 100 100 100 100 99 100 88 84 43 56 78 89 84 97 99 100 100 98 89 77 78 69 49 54
71 77 69 80 85 87 95 96 98 100 99 98 100 99 100 75 51 60 56 76 92 99 99 100 100 99 100 92 80 82 67 55
66 70 72 79 80 86 90 96 97 98 98 98 100 100 100 94 85 63 56 67 74 85 92 98 100 100 100 100 95 92 84 69
60 64 70 78 81 82 79 83 98 97 98 99 100 100 100 100 93 80 66 63 68 76 96 86 80 100 100 100 100 99 92 79
58 61 68 72 74 85 86 89 90 96 98 99 99 100 100 100 99 99 85 84 88 97 91 99 72 81 100 100 100 100 99 89
54 58 65 68 69 76 91 96 92 93 88 98 99 99 100 100 100 99 100 97 87 100 92 100 99 99 99 99 84 100 100 100
51 56 64 65 64 74 81 90 94 92 94 88 95 98 97 94 99 100 100 99 99 90 92 100 100 97 98 97 82 99 100 100
47 55 64 65 64 71 76 84 86 91 89 95 85 100 99 99 93 93 98 97 99 99 99 91 96 95 98 97 84 74 84 100
48 52 60 65 64 63 74 74 76 86 91 91 85 72 96 98 100 95 85 94 100 97 100 99 96 99 98 95 84 84 89 88
48 50 56 65 66 64 62 68 78 75 79 86 87 69 58 61 49 68 87 86 85 78 92 99 100 96 96 98 99 92 93 92
49 52 56 60 66 66 65 60 79 85 79 87 88 81 66 60 64 63 71 66 77 83 70 71 94 96 95 98 100 100 100 100
51 53 56 66 66 66 65 60 61 83 82 85 95 85 72 56 58 64 70 73 66 68 69 78 91 94 77 91 99 100 99 100

GFSFLT1_850_rhum_255.txt.gz
RH
76 76 72 70 71 62 57 53 46 41 38 37 34 34 52 94 98 93 87 85 70 64 74 73 63 44 40 40 23 27 33 62
67 70 75 74 73 67 65 69 69 58 50 39 36 31 34 74 99 99 100 98 92 76 76 83 79 61 38 37 28 28 32 43
44 54 62 74 78 76 76 75 81 95 95 88 59 47 33 39 69 99 100 99 95 96 94 98 90 76 58 45 42 26 38 38
69 56 52 61 82 86 82 82 88 97 100 99 88 54 48 39 37 50 76 93 99 100 100 100 100 91 75 47 42 27 37 38
65 67 48 56 74 88 86 85 89 93 94 100 98 100 84 46 51 70 35 45 94 90 100 100 99 99 93 63 44 40 28 33
68 75 61 46 59 86 95 89 84 89 96 100 100 98 100 82 49 84 78 45 55 79 91 99 100 99 100 76 53 52 32 31
60 66 53 53 56 58 76 92 92 83 93 99 100 99 98 100 91 99 99 83 48 45 68 85 99 99 100 92 74 50 45 36
61 67 65 64 72 70 75 82 96 92 86 96 100 99 100 98 100 100 96 98 81 48 51 78 100 99 100 99 94 64 56 47
58 63 67 61 59 54 71 88 94 96 88 94 98 100 100 100 100 100 100 98 89 98 49 76 83 100 100 100 100 91 67 62
56 60 63 57 64 72 80 75 86 96 90 93 95 98 100 100 100 100 99 100 80 74 88 60 50 64 100 99 100 99 83 73
53 60 62 59 64 67 73 81 88 85 91 90 97 97 98 100 100 100 100 100 95 76 80 62 55 64 98 100 100 99 100 85
53 59 60 59 59 61 64 68 84 87 89 86 92 95 97 98 100 100 100 100 100 98 98 62 63 75 95 84 95 100 100 100
50 55 57 59 60 60 60 60 71 88 94 93 90 95 95 98 98 99 100 100 100 100 100 60 63 90 99 99 77 100 99 100
49 54 56 60 61 60 61 58 60 74 88 93 93 95 88 87 96 98 98 100 100 100 100 89 94 97 100 97 98 87 99 100
49 54 60 66 64 64 62 61 54 62 75 91 93 95 92 93 83 92 98 99 100 100 100 98 80 88 92 100 99 100 97 93
50 54 60 62 65 65 63 59 56 62 68 89 96 98 86 91 92 89 90 98 100 100 100 100 97 99 100 96 99 99 97 97
51 53 59 62 66 64 57 55 72 53 61 84 100 86 69 91 94 77 91 98 99 89 89 92 95 98 100 100 99 73 100 100
54 54 58 64 64 58 54 60 61 56 79 100 100 81 65 59 87 95 99 100 91 78 65 66 75 85 99 98 96 90 98 100
54 56 58 62 58 60 56 68 64 77 83 87 90 70 65 82 96 100 100 100 91 70 77 72 63 75 70 91 97 99 98 98